METAR Formatted Surface Weather Observation
Issued by NWS

Home | Current Version | Previous Version | Text Only | Print | Product List | Glossary On
Versions: 1 2 3 4 5 6 7 8 9 10 11 12 13 14 15 16 17 18 19 20 21 22 23 24 25 26 27 28 29 30 31 32 33 34 35 36 37 38 39 40 41 42 43 44 45 46 47 48 49 50
415
SAUS46 KSGX 060002
MTRNJK
METAR KNJK 052356Z COR 27023G33KT 10SM -RA FEW080 FEW280 27/03 A2972
RMK AO2 PK WND 27035/2345 SLP081 T02670033 10300 20267 56008



USA.gov is the U.S. government's official web portal to all federal, state and local government web resources and services.